Вернуться в каталог

COSMOS 783

АктивенВоенныеLEO
NORAD 8458·PAYLOAD·🇷🇺 Russia

Запущен Nov 28, 1975 с Plesetsk Cosmodrome

Loading…

Ближайшие Пролёты (ближайшие 24 часа)

TLE

СвежийSource: Space-Track

Эпоха: Sep 14, 2026, 06:10 UTC

1 08458U 75112A   26257.25740533  .00000090  00000-0  41745-4 0  9996
2 08458  74.0592 200.3441 0013333 251.9622 108.0077 14.33795382652953

Отслеживайте COSMOS 783 в реальном времени с AllMySat

Download on the App Store